Wind_Speed
9 11 10 7 7 5 4 4 4 5 6 8 9 9 9 8 7 7 6 6 6 5 4 3 5 6 8 9 8 8 8 8 9 9 10 11 10 9 9 9 13 17 17 17 19 20 21 25 26 26 25 24 24 24 23 23 22 21 21 20 20 19 18 18 18 18 18 18 17 15 15 15 15 16 17 18 19 20 22 23 24 24 24 24 24
12 12 10 9 7 6 5 4 5 6 7 9 9 10 9 8 7 7 7 7 6 5 4 4 5 7 8 9 8 8 8 8 8 9 11 11 10 10 10 9 12 17 17 17 19 20 21 23 26 26 25 24 23 24 23 23 22 22 21 20 20 18 17 17 18 17 17 17 16 15 14 14 14 15 16 16 17 19 21 23 23 23 23 24 24
11 12 11 10 8 6 6 5 6 6 8 9 10 10 9 8 8 7 7 6 6 4 4 4 5 6 7 8 8 8 8 8 8 9 10 11 10 9 10 10 11 15 17 17 18 20 20 22 25 26 25 24 23 23 23 23 22 21 21 20 19 18 17 17 17 16 16 15 14 14 14 13 13 13 14 15 16 18 21 22 22 22 23 23 23
10 11 12 10 9 7 6 5 6 7 8 9 10 10 9 8 7 7 7 6 5 4 4 4 5 5 6 6 7 7 7 8 8 9 10 10 10 9 10 11 11 14 17 17 17 19 20 21 24 25 25 24 23 23 23 23 22 21 21 20 20 18 17 17 16 16 15 14 13 13 13 13 13 12 13 14 15 17 20 20 21 21 22 22 23
11 10 12 10 9 7 6 6 6 7 8 9 10 9 8 8 7 7 7 5 5 4 3 4 4 4 5 5 6 7 7 7 8 8 9 10 10 10 11 11 11 13 17 17 17 18 19 21 22 24 25 25 23 23 23 23 22 22 21 20 20 19 18 17 16 15 14 13 13 12 11 12 12 12 12 13 15 16 18 19 19 20 21 21 22
12 10 11 10 8 7 5 5 6 7 8 9 9 9 8 8 7 7 6 5 4 3 3 3 3 3 4 4 5 6 6 6 7 8 9 10 10 11 12 12 12 12 16 17 17 17 19 20 21 23 25 25 24 23 23 23 22 22 21 21 21 19 18 17 15 14 13 13 12 11 10 11 11 11 12 13 14 15 15 16 18 19 19 20 21
12 11 10 9 8 6 5 5 6 7 8 9 9 8 8 8 7 6 6 5 4 3 3 3 3 3 3 4 4 4 5 6 6 7 8 9 10 11 11 12 13 13 15 16 16 17 18 19 21 22 24 25 24 23 23 23 23 22 21 21 21 20 18 17 16 14 13 12 12 11 10 10 10 11 11 12 13 12 13 14 16 17 18 19 20
13 11 9 8 7 5 5 6 6 7 8 9 9 9 8 8 6 6 5 5 4 3 3 3 3 2 3 3 3 3 3 5 5 6 7 9 10 11 10 11 14 15 15 15 16 17 18 19 21 22 23 24 25 24 24 23 23 22 21 21 21 20 19 18 16 15 13 12 12 11 10 10 9 10 10 11 11 10 11 13 14 16 17 18 19
13 11 9 8 6 6 6 6 7 7 8 8 9 9 8 7 6 5 4 4 3 3 3 2 2 2 3 2 3 3 3 4 5 6 7 9 10 11 10 12 15 16 15 14 15 15 17 19 21 22 22 24 25 25 24 24 23 23 22 22 22 21 20 18 17 15 14 14 12 10 9 9 8 8 9 9 9 9 10 11 13 14 16 17 18
12 11 9 8 6 6 6 6 7 7 8 8 8 8 7 6 5 4 3 3 2 2 2 2 2 2 3 3 3 3 3 4 5 6 7 9 10 11 12 14 16 16 14 12 12 13 15 18 20 22 23 23 25 26 25 24 24 23 23 22 22 22 21 19 18 16 16 14 11 9 9 8 7 7 7 8 8 8 8 9 11 13 15 16 16
11 10 8 7 6 6 6 6 6 7 7 7 7 7 6 5 4 3 2 2 2 2 2 2 2 3 3 3 3 3 4 5 6 6 7 8 10 11 12 13 15 15 13 12 12 13 14 16 20 22 23 24 25 26 26 26 25 24 23 23 23 22 21 20 18 17 16 14 11 11 10 9 7 6 6 6 6 6 7 8 10 11 13 14 15
10 9 8 7 7 6 6 6 6 7 7 7 6 5 5 4 3 2 2 2 2 2 2 2 3 3 3 3 4 4 5 6 6 7 8 9 10 11 11 11 11 11 12 12 12 13 14 15 19 22 23 24 25 26 27 27 26 25 24 24 24 23 22 21 20 18 17 15 13 12 10 8 7 6 4 3 3 4 6 7 8 9 11 13 14
10 8 8 7 7 7 6 6 6 7 6 6 6 5 5 4 3 2 1 1 1 2 2 3 4 4 4 4 5 5 5 6 6 7 8 9 9 9 9 9 8 9 10 10 11 12 14 15 17 21 24 25 25 26 27 27 27 26 25 25 24 24 23 23 22 21 19 17 15 13 11 9 7 5 4 2 1 2 5 6 7 8 10 12 13
9 8 8 8 7 7 6 6 6 6 6 5 5 4 3 3 3 2 2 2 2 3 3 4 4 5 5 5 5 5 6 6 7 7 8 8 8 8 7 7 7 7 8 9 11 12 13 15 16 19 24 26 26 27 27 27 28 27 26 26 25 25 24 24 24 23 21 19 17 14 11 10 8 6 5 3 2 2 4 6 6 7 9 11 12
9 8 8 8 7 7 6 6 6 6 5 5 5 4 3 3 3 3 3 3 4 5 5 5 5 5 5 5 5 5 5 5 6 6 7 7 7 7 6 5 5 5 7 8 9 10 12 14 15 17 22 26 26 27 28 28 28 28 27 27 26 25 25 25 24 24 22 20 19 14 12 11 9 8 7 6 4 3 4 6 6 6 8 10 11
9 9 9 9 8 7 7 7 7 6 6 5 5 4 4 4 4 4 4 5 5 6 6 6 5 5 5 5 5 4 3 3 3 4 5 6 6 5 4 4 4 4 5 7 8 9 10 12 14 16 20 25 27 27 28 28 28 28 28 27 27 26 26 26 25 25 24 23 21 17 14 12 11 10 9 8 6 5 5 6 7 7 7 9 10
9 9 9 9 8 7 7 7 6 6 6 6 5 5 5 5 5 5 5 6 6 7 7 7 5 5 5 6 5 4 3 2 2 2 3 4 5 4 4 4 4 4 4 6 7 8 9 11 13 14 17 23 27 28 28 28 28 29 28 28 27 27 26 25 26 26 25 25 24 20 17 15 14 13 11 10 8 7 6 7 8 7 7 8 10
9 9 9 9 8 7 7 6 6 6 6 6 6 5 6 6 5 6 6 6 7 8 8 7 6 5 7 7 5 4 2 2 2 3 3 3 4 4 4 4 4 3 3 4 5 7 9 11 12 14 16 21 26 28 28 28 28 29 29 29 28 28 27 26 27 26 26 27 25 22 19 17 16 15 13 12 10 9 8 8 8 8 7 7 9
8 8 8 8 7 6 6 6 6 7 7 6 6 6 7 7 6 6 6 7 8 8 9 8 7 9 11 7 4 3 3 3 3 4 4 4 4 3 4 3 3 2 2 3 4 6 8 11 12 14 16 19 24 28 29 28 29 29 29 29 29 28 27 27 27 26 28 28 26 24 22 19 18 17 15 14 13 11 10 10 9 8 8 7 8
9 8 8 7 6 6 6 6 6 7 8 7 6 6 6 7 6 6 6 8 8 8 8 9 10 12 11 5 2 3 3 4 4 5 5 4 4 3 3 3 3 3 3 4 4 6 7 9 11 13 16 18 22 26 29 29 29 29 29 29 29 29 28 28 28 28 29 28 26 25 23 21 20 19 18 16 15 14 13 11 10 9 8 8 9
10 8 7 6 6 7 7 6 7 7 8 7 6 5 7 6 5 6 7 9 9 9 9 10 11 12 11 5 3 4 4 5 5 5 5 5 5 4 4 3 3 4 4 5 5 5 6 8 10 12 14 17 20 24 27 29 29 29 29 29 29 29 28 29 28 29 30 28 27 26 24 23 22 21 20 18 17 16 14 13 11 10 9 9 9
10 9 7 7 6 6 6 6 7 8 7 6 5 6 8 6 6 7 8 9 9 10 11 11 12 12 11 5 4 5 5 5 5 6 6 7 6 5 5 4 3 4 4 5 5 5 5 7 9 11 11 13 17 22 26 28 29 29 29 29 29 29 28 29 28 29 32 29 27 27 25 24 23 22 21 20 19 17 16 14 13 11 11 10 10
9 9 8 7 6 6 6 7 8 7 7 5 5 7 8 7 7 8 9 9 9 12 14 13 11 11 9 6 4 5 5 6 6 6 6 7 7 6 6 5 4 4 4 4 4 5 5 5 7 10 11 11 15 20 24 28 30 30 29 29 29 29 28 28 28 30 33 31 28 27 27 25 24 23 22 21 20 18 17 16 14 13 12 12 11
9 8 7 7 6 6 6 7 7 7 5 5 5 7 7 7 8 8 10 10 10 13 15 13 9 10 9 5 3 3 5 7 6 6 6 7 7 6 5 4 3 4 5 4 4 4 4 5 6 9 12 12 15 19 22 26 29 30 30 29 29 29 29 28 28 31 33 31 28 27 27 26 25 25 23 22 21 20 19 17 16 15 14 13 12
11 9 7 7 6 5 6 6 6 5 4 4 5 6 6 7 8 9 10 10 12 14 14 11 9 9 7 3 3 4 5 7 6 6 7 7 7 6 5 4 4 6 6 5 4 4 4 4 5 7 11 13 15 18 21 25 28 30 31 30 30 30 30 30 29 31 33 31 29 27 27 27 26 26 24 23 22 21 20 19 18 17 16 15 14
13 11 9 8 7 6 6 6 5 6 5 5 5 6 7 8 9 10 10 11 13 14 11 9 9 8 6 5 6 6 6 6 6 6 7 9 8 7 5 4 6 8 8 6 5 5 4 3 3 5 7 11 14 17 20 23 27 30 31 30 30 30 29 29 28 31 33 30 29 28 27 27 27 27 25 24 24 23 22 21 20 19 18 17 16
13 11 10 9 9 8 7 6 5 7 8 7 6 6 7 9 11 10 11 12 12 13 11 8 7 8 7 7 8 6 6 5 6 7 9 10 9 8 6 6 8 9 8 7 7 5 4 3 3 3 4 6 11 15 18 21 25 28 30 31 31 30 28 28 27 31 32 29 28 28 28 28 27 28 27 26 25 24 23 22 21 20 19 18 17
12 11 10 9 8 7 8 7 6 8 10 10 8 8 9 10 12 12 12 12 12 13 12 9 8 8 7 7 8 8 8 8 8 10 11 11 9 8 6 6 8 10 9 7 7 6 5 5 4 4 4 4 7 12 16 19 21 23 28 31 31 30 29 28 27 29 31 28 28 27 27 27 27 28 28 27 26 25 24 23 22 21 20 19 18
10 9 8 7 7 6 7 8 7 9 9 9 10 10 10 10 11 12 12 12 12 12 12 10 8 7 7 8 8 8 10 10 10 10 12 11 9 8 8 8 10 10 9 8 9 7 7 7 6 6 6 6 7 10 14 18 20 20 23 29 31 31 30 28 26 27 28 27 27 27 26 26 26 26 27 27 26 25 24 24 22 21 20 19 19
10 9 8 7 6 5 6 7 8 9 8 8 10 10 9 9 9 9 10 10 11 11 11 10 8 7 8 9 8 8 10 11 10 11 13 12 10 9 10 11 11 11 11 11 10 10 10 9 10 10 9 8 7 9 12 16 19 20 21 25 28 30 30 29 26 25 26 26 25 25 25 26 25 25 26 26 26 25 25 23 22 21 20 20 19
11 10 9 8 6 6 4 4 6 8 10 10 10 10 9 8 9 8 8 9 10 10 10 10 8 7 9 10 9 9 9 10 11 12 13 13 12 11 12 12 12 11 13 13 11 12 12 12 12 11 9 9 9 9 11 13 18 21 21 21 24 27 29 30 28 26 26 25 24 24 24 25 25 25 24 25 25 25 24 23 22 21 21 20 19
12 10 9 8 6 5 2 2 5 7 10 11 10 10 9 8 8 8 7 8 9 9 10 11 8 7 9 11 11 11 11 12 13 13 13 14 14 13 13 13 12 12 14 14 13 15 13 11 12 11 10 10 10 10 10 12 15 17 18 18 20 25 29 31 30 28 26 24 22 22 23 24 24 24 23 24 24 24 24 23 23 22 21 21 20
11 10 8 7 5 4 1 2 5 7 8 9 10 10 10 9 9 8 8 10 10 9 10 10 8 8 10 12 13 13 12 12 13 14 14 14 14 15 14 14 13 13 14 14 14 15 13 10 12 11 10 11 10 11 10 11 13 15 16 17 19 21 26 30 30 28 27 25 23 22 22 22 23 23 23 23 23 23 24 23 23 22 22 21 20
11 10 9 7 5 3 1 3 5 7 8 8 9 9 9 9 10 10 8 10 11 9 9 10 9 9 10 12 13 12 13 13 14 15 15 14 15 16 16 14 13 13 13 12 11 12 11 10 12 12 11 11 10 10 10 10 12 15 16 16 18 18 22 27 28 29 27 26 25 23 22 22 22 23 23 23 22 23 23 23 23 23 22 21 20
12 10 8 6 5 2 2 5 6 8 8 9 9 8 8 8 10 11 9 10 11 9 9 9 8 8 10 12 12 12 13 14 15 15 15 15 17 17 16 13 11 11 12 12 11 11 11 10 11 12 11 11 10 10 10 10 11 15 16 17 18 18 20 22 23 26 28 27 26 25 24 23 22 23 23 22 22 22 22 23 23 23 22 22 21
11 9 8 6 4 3 4 5 7 9 10 11 11 10 9 8 8 9 11 12 11 10 10 11 9 8 10 11 12 12 13 14 15 16 15 16 18 17 16 13 10 11 12 11 12 13 11 11 12 13 12 11 11 10 11 11 11 14 16 18 20 19 20 22 23 23 24 26 26 26 27 26 24 23 23 22 21 20 20 21 22 23 23 23 22
11 9 9 7 5 4 5 6 9 11 11 12 12 12 10 8 8 8 10 12 12 13 14 15 14 11 10 10 11 12 13 14 14 16 16 16 17 17 16 14 13 13 12 12 13 14 13 12 13 13 12 12 12 11 11 12 12 14 15 16 21 20 17 20 25 26 24 23 24 25 27 27 25 24 23 22 22 21 20 19 20 21 23 23 23
11 10 9 7 6 5 6 8 10 11 12 13 13 13 12 9 8 8 9 11 13 14 14 17 17 15 12 12 12 13 13 14 14 16 17 16 17 17 16 16 15 13 13 13 14 14 14 13 12 11 12 12 12 11 11 12 13 14 15 17 21 22 19 18 21 26 27 25 21 21 22 22 22 22 23 22 22 23 23 22 21 20 21 22 23
11 11 10 9 8 7 7 9 10 12 12 13 14 15 15 12 11 10 10 10 11 12 13 16 16 14 13 13 15 15 15 15 15 16 17 17 18 18 18 17 16 14 14 14 15 14 13 12 11 11 11 11 11 11 11 12 13 14 13 17 22 23 22 20 19 22 26 27 24 21 19 18 18 18 19 20 21 22 22 23 23 21 21 21 23
11 11 11 10 10 9 9 10 11 12 13 14 14 15 16 15 14 13 12 11 10 11 12 13 13 12 12 13 15 16 17 16 16 17 17 18 19 21 20 18 16 16 17 16 15 14 13 12 11 10 11 10 10 11 12 11 12 14 12 13 19 23 22 19 19 20 23 26 28 26 23 21 19 18 19 19 20 21 21 22 22 22 22 23 23
12 12 11 11 11 10 10 11 11 12 13 14 14 15 16 16 16 15 13 11 10 10 10 9 9 9 10 11 12 14 15 15 16 17 17 18 19 20 20 18 17 17 18 18 15 14 14 13 11 10 11 10 10 12 13 11 11 13 14 12 12 18 22 20 19 19 20 23 27 28 27 26 23 19 19 19 19 19 21 22 22 22 22 23 23
13 13 12 12 12 11 11 11 11 12 13 14 15 15 16 18 18 18 16 11 9 8 7 7 7 7 7 8 10 11 12 13 13 15 17 17 18 18 18 17 16 15 16 17 14 13 14 14 13 13 13 12 12 12 13 11 11 12 14 13 9 10 15 18 19 18 18 21 24 26 27 27 26 23 20 20 19 19 20 23 23 23 22 23 23
14 14 14 14 13 12 12 11 11 12 13 14 15 15 16 17 18 19 19 14 10 8 7 7 7 6 6 6 7 8 10 10 11 13 14 15 16 16 15 15 14 12 13 14 13 13 13 13 12 13 13 13 13 13 12 12 12 12 13 13 10 8 8 11 17 20 19 19 21 23 24 24 25 25 24 23 21 19 20 22 22 22 23 24 23
16 16 17 15 14 13 12 12 11 12 12 13 14 14 15 15 16 17 18 14 10 8 7 7 6 6 5 5 5 6 7 8 10 11 11 12 13 14 13 12 12 10 11 12 12 11 11 11 11 11 11 12 13 12 12 12 11 11 11 10 10 8 6 7 12 17 21 21 20 22 22 22 22 23 24 24 24 23 22 22 21 21 22 22 22
17 19 19 17 16 14 13 13 12 12 12 12 12 13 14 14 14 15 17 13 9 8 7 6 5 5 3 3 3 4 4 5 6 8 8 8 10 10 11 10 10 10 10 11 10 9 10 10 11 11 10 10 10 10 11 11 10 11 11 10 10 9 9 9 10 13 18 21 22 23 23 22 22 21 21 23 24 24 22 23 23 23 23 23 22
21 21 21 19 18 16 15 14 13 12 12 11 11 12 12 13 13 14 15 11 7 6 5 4 4 3 3 3 3 3 4 4 5 6 6 6 6 7 8 7 7 8 9 8 8 8 8 8 10 10 10 10 9 9 10 10 10 10 11 11 11 12 13 12 10 11 16 22 25 25 24 22 20 20 20 21 23 23 21 22 23 23 24 25 24
24 23 22 21 20 18 17 15 14 13 12 11 11 11 11 12 12 13 14 9 6 5 4 4 4 4 4 5 5 6 6 5 6 6 6 6 5 5 5 5 5 5 6 7 7 7 7 7 7 8 9 10 10 10 10 10 9 9 10 11 12 13 14 14 11 10 11 16 22 26 26 24 21 20 20 19 20 22 22 22 23 23 24 25 24
27 25 23 22 22 20 18 17 15 13 12 11 11 11 11 11 11 12 13 9 5 5 5 5 5 6 6 7 7 7 7 7 7 7 7 7 6 6 5 5 4 3 3 4 5 5 5 6 6 6 6 8 10 11 11 11 10 9 9 10 12 13 14 12 10 9 7 8 15 22 26 26 23 22 21 20 21 22 22 22 24 24 23 24 23
28 28 25 24 23 21 20 19 18 15 13 12 12 11 11 11 10 12 12 8 5 5 5 5 6 6 7 7 7 7 7 6 6 6 7 7 7 7 6 5 5 4 3 3 3 3 3 4 4 5 5 6 8 10 10 11 11 12 12 13 13 14 14 12 10 11 10 8 10 15 20 23 24 23 23 22 22 22 22 23 25 24 23 23 23
28 26 26 25 24 23 22 21 20 16 14 14 13 11 11 10 10 11 10 7 6 6 5 5 5 6 7 7 7 7 6 5 4 4 5 5 6 6 6 6 5 4 4 3 3 2 2 3 3 3 3 4 6 7 9 9 10 11 12 13 14 14 14 15 14 13 12 11 11 12 14 16 19 21 23 24 25 26 25 25 26 25 24 24 23
23 20 22 24 25 25 24 24 22 18 16 15 13 12 11 10 9 10 10 7 6 6 6 5 4 5 6 6 6 6 5 5 4 4 3 4 4 5 5 5 5 5 4 4 4 3 3 3 3 3 2 2 3 5 6 7 8 9 10 11 12 12 12 13 14 13 13 13 14 14 14 14 15 18 19 20 22 26 28 28 28 26 25 24 23
Wind_Direction
249 225 214 209 212 216 233 242 237 234 231 227 222 216 215 214 208 198 190 182 174 165 152 130 116 113 108 105 99 96 100 109 124 130 129 125 124 134 136 138 160 169 163 156 158 161 162 165 166 166 165 163 162 161 160 158 155 153 152 150 148 144 140 134 129 126 122 117 114 110 103 97 90 83 76 71 67 66 63 61 58 55 52 50 47
240 220 213 210 209 213 229 234 227 229 225 223 221 217 219 217 210 202 195 186 179 171 154 135 124 113 108 105 102 98 99 109 118 128 136 132 125 134 143 143 160 172 169 159 159 164 164 167 169 168 167 165 165 164 163 162 160 158 156 155 153 149 146 141 137 132 127 123 121 116 109 100 91 83 76 69 64 64 62 59 57 53 51 49 46
225 210 208 208 205 212 224 226 222 224 223 221 220 218 221 220 212 206 200 190 182 171 155 136 125 114 109 105 102 99 98 106 113 124 138 138 131 137 150 152 160 173 174 165 161 165 167 169 171 171 170 168 167 167 167 166 165 162 159 158 156 155 154 149 143 137 132 129 124 118 112 104 94 84 77 69 63 62 61 58 55 53 51 48 45
217 207 206 204 203 212 215 221 220 218 221 219 220 220 222 219 213 210 202 193 183 168 153 136 127 115 108 104 101 97 97 103 112 125 136 138 136 143 155 160 163 172 176 170 164 166 170 170 173 174 173 172 170 170 171 170 169 167 163 161 162 163 161 156 149 144 140 135 128 121 114 106 97 87 76 70 63 60 59 57 55 53 51 48 44
219 211 207 206 207 210 212 219 218 217 219 218 220 221 222 216 213 209 202 193 179 166 150 138 131 120 110 102 99 96 97 100 113 127 137 136 132 141 153 163 163 169 174 174 169 169 172 173 174 176 177 176 174 173 174 174 173 171 166 165 169 169 166 162 157 151 147 143 136 129 120 108 99 89 79 70 64 59 56 56 54 52 50 48 44
221 215 207 210 210 210 215 219 216 216 215 218 219 218 218 211 207 205 200 190 176 166 149 144 137 129 117 103 100 100 104 105 115 129 140 139 133 137 150 163 162 164 170 173 172 171 175 177 177 178 180 179 178 177 177 177 176 175 170 170 174 173 170 167 163 160 156 152 144 138 126 110 101 91 80 71 64 59 54 53 52 51 49 48 45
217 211 209 212 211 213 217 222 219 216 214 217 216 214 213 205 202 200 197 189 176 166 153 155 149 141 129 111 109 109 112 113 118 133 145 148 142 135 144 164 164 160 163 168 171 172 177 180 181 181 183 183 182 180 180 180 179 179 175 176 179 177 175 171 170 167 164 162 153 147 133 113 104 93 83 72 65 60 55 53 51 50 48 47 45
211 208 211 211 212 216 217 223 221 218 216 215 215 214 210 205 204 200 201 194 181 169 162 163 161 149 136 122 118 114 110 114 120 137 150 155 152 137 140 169 171 162 160 165 171 173 179 183 184 183 185 186 186 184 183 183 182 182 180 181 183 182 180 175 175 172 170 171 163 155 138 120 108 96 85 75 67 59 53 51 48 48 47 45 45
206 208 213 213 215 218 217 221 222 221 216 215 216 215 210 208 208 204 203 197 188 178 178 178 173 154 141 135 123 115 105 113 126 141 152 157 158 146 150 176 176 169 166 168 173 176 182 187 188 186 187 189 189 187 186 185 185 185 184 186 186 186 185 180 179 176 177 179 171 162 141 124 112 101 89 77 66 56 50 48 46 45 46 43 43
204 206 209 212 216 219 219 223 224 219 215 216 216 214 209 206 207 200 195 194 202 195 192 186 174 165 153 152 141 127 122 128 136 144 150 154 157 156 169 183 182 182 184 183 183 187 189 191 192 190 190 191 191 191 189 188 187 187 187 189 190 191 190 186 184 183 186 185 176 169 151 135 127 112 95 80 64 50 45 44 43 41 43 42 40
205 206 207 213 219 224 223 227 225 215 211 215 214 213 207 204 202 187 188 196 212 212 198 187 183 184 177 174 165 152 142 140 140 140 142 146 150 157 169 179 186 195 202 205 201 200 199 197 197 195 194 194 194 193 192 191 189 190 190 192 194 194 194 192 190 189 193 192 183 179 163 149 148 132 106 84 64 46 40 38 39 36 38 40 38
205 208 212 215 222 226 228 229 222 211 207 211 210 210 209 205 199 188 197 211 226 219 204 197 200 202 198 190 178 168 154 143 139 137 139 143 146 151 157 164 176 189 198 205 207 207 207 205 202 200 198 197 197 195 195 194 192 192 193 194 196 197 198 199 198 198 199 199 194 188 170 158 166 151 123 94 70 46 33 30 32 30 32 35 36
207 208 214 215 222 226 229 225 212 207 202 206 207 206 207 198 186 181 192 218 239 227 216 205 198 197 188 180 173 163 152 146 144 142 144 145 145 146 149 156 164 177 190 199 205 209 210 210 207 205 202 200 200 198 197 197 195 194 195 195 197 200 201 203 205 206 203 203 204 194 175 170 186 175 158 157 98 39 21 16 20 22 25 29 32
205 204 212 215 221 222 221 213 202 202 201 206 207 200 190 182 171 162 179 213 225 222 216 207 199 193 185 178 169 161 154 150 149 149 150 150 148 144 145 152 160 177 191 200 207 210 210 211 210 208 205 203 202 201 199 199 198 196 197 197 199 201 204 207 209 211 208 209 212 200 181 183 198 200 200 217 242 344 359 357 3 13 17 22 26
198 200 210 213 217 215 208 202 197 197 201 207 204 196 180 180 178 173 190 205 212 215 214 213 211 209 204 197 188 180 170 158 153 154 154 157 158 153 148 148 157 180 192 201 209 211 212 214 211 209 208 206 204 204 202 201 201 199 199 199 200 203 206 210 213 216 213 214 219 208 195 199 209 213 219 232 249 297 332 340 347 359 8 14 18
193 197 203 206 210 207 201 197 196 194 201 207 198 192 190 188 190 197 201 207 211 213 218 219 219 224 222 213 205 198 188 181 172 166 163 164 167 167 167 162 168 184 197 205 212 215 217 218 216 210 208 208 206 206 205 204 204 202 202 202 202 204 207 211 215 219 218 218 221 216 209 212 220 224 229 240 253 280 310 323 331 342 354 5 10
193 195 195 200 205 202 201 198 198 198 201 204 198 194 195 191 194 207 210 213 217 218 223 226 228 230 230 223 211 201 199 214 222 222 204 185 183 187 194 192 191 200 212 215 219 223 224 224 222 217 210 210 209 207 207 206 206 205 205 205 204 206 208 212 216 220 222 224 223 219 218 220 226 230 233 243 255 271 292 308 317 327 339 355 3
192 192 192 195 197 196 199 197 197 199 204 204 201 200 199 198 203 213 222 227 227 228 231 233 238 239 237 226 211 209 205 223 259 264 253 230 214 207 211 215 212 211 229 236 235 235 234 231 227 224 216 211 210 209 208 207 208 207 207 207 207 208 209 213 218 220 223 226 224 221 222 225 230 235 238 244 254 266 281 294 303 314 324 341 353
188 191 192 191 188 190 199 203 199 197 204 205 199 199 207 213 220 227 238 244 241 239 240 242 243 246 244 226 207 222 206 222 255 268 266 257 240 222 218 224 226 219 238 253 255 246 241 239 232 228 223 214 211 211 210 208 208 209 209 209 209 210 211 215 219 221 223 226 226 226 225 228 234 239 243 248 255 263 273 283 292 301 310 323 339
190 190 186 188 182 187 202 209 205 200 202 202 197 199 216 227 236 244 250 251 250 249 250 248 241 246 254 248 239 248 235 243 251 255 261 261 247 229 215 218 236 237 237 247 254 246 238 238 233 230 227 219 213 212 212 210 209 209 210 211 211 211 213 217 219 223 225 225 227 229 229 231 235 241 245 251 257 263 269 276 282 288 296 308 325
191 190 182 187 189 194 205 211 213 211 203 198 200 216 231 237 245 250 253 256 258 263 261 256 251 255 261 263 265 269 266 257 252 250 253 257 246 229 217 217 240 242 232 230 234 236 233 231 227 226 227 224 217 213 213 212 210 210 210 212 214 214 215 219 221 226 227 225 228 230 231 233 236 242 247 252 257 263 267 271 273 278 285 295 312
189 189 187 190 199 201 204 213 217 219 216 210 216 237 245 245 252 255 258 265 271 275 268 260 262 264 266 276 286 281 283 275 263 252 247 249 245 229 221 228 247 244 231 222 221 227 233 230 225 222 223 227 224 217 214 213 212 211 211 212 215 216 217 221 223 229 229 225 228 230 231 233 236 241 246 252 256 261 264 266 267 269 275 285 299
188 190 187 185 192 193 202 215 220 228 229 221 223 237 246 247 249 259 267 272 275 274 267 259 264 274 292 321 305 280 280 276 266 253 247 248 247 236 229 241 260 257 245 231 228 230 234 235 231 226 222 228 229 221 215 214 213 212 212 213 215 217 219 222 224 230 232 228 228 231 233 234 235 239 244 249 253 257 260 261 262 263 268 277 289
186 190 187 189 190 186 205 221 229 241 236 220 226 236 247 254 255 263 270 273 272 269 270 274 281 292 314 334 311 297 279 271 268 256 252 250 248 241 238 250 265 269 257 243 242 234 237 241 235 230 226 227 226 221 216 214 213 212 212 214 215 216 218 222 225 230 233 231 230 231 234 235 236 238 242 246 250 254 257 259 259 261 265 272 281
184 187 191 201 200 191 214 233 239 244 242 233 245 257 264 268 268 266 268 272 269 266 271 287 299 299 309 302 274 291 266 254 252 247 253 257 253 245 243 250 254 260 254 245 242 224 232 252 248 238 229 226 225 221 217 213 213 212 212 214 215 216 218 220 225 231 234 233 232 232 234 235 237 239 241 244 249 252 254 257 258 260 264 269 275
183 186 197 207 217 216 222 238 248 252 257 253 254 264 269 272 272 269 265 262 262 266 271 284 295 292 289 269 264 266 244 236 234 236 254 259 257 253 249 248 249 254 254 251 245 224 221 242 262 254 233 226 225 224 222 217 214 212 213 215 216 217 218 220 224 232 235 235 234 233 234 235 236 238 240 243 247 251 253 255 258 260 263 267 271
184 193 201 206 224 229 229 241 258 270 280 283 278 272 271 272 273 269 262 258 262 270 273 275 280 280 277 270 268 258 236 237 243 246 252 251 250 252 250 250 251 252 253 253 247 231 219 221 242 254 232 225 226 225 225 224 220 215 214 215 217 217 218 220 224 232 235 236 237 236 235 235 236 237 238 240 244 248 251 253 256 259 262 265 269
189 199 203 208 228 234 243 250 257 275 290 295 290 282 277 278 279 274 269 267 265 268 273 277 279 275 266 259 259 248 236 245 255 254 256 254 252 256 256 257 255 251 251 252 249 240 225 225 230 238 236 227 228 229 228 228 228 222 218 218 218 217 217 218 222 231 236 237 238 239 238 237 238 239 238 239 241 245 249 252 254 258 261 264 267
193 206 212 221 241 251 265 270 274 281 288 290 287 285 282 282 283 280 280 276 268 269 272 272 273 271 263 255 251 246 246 252 251 250 257 257 255 256 257 256 251 251 254 252 250 248 243 242 242 242 243 239 234 237 237 235 233 229 224 222 221 220 218 217 218 228 234 236 238 239 240 240 240 241 240 240 240 243 246 250 252 256 259 262 264
196 210 217 223 242 263 279 288 299 304 303 298 292 290 286 279 276 272 272 268 264 269 270 263 257 261 261 254 247 247 255 259 252 248 254 256 251 246 246 247 244 248 256 252 248 252 256 257 252 245 243 246 243 239 243 242 237 233 230 226 224 222 221 219 218 225 232 233 236 239 241 241 241 242 242 242 241 242 244 247 250 253 256 259 261
205 209 216 224 235 254 272 304 328 325 317 314 304 294 288 277 273 269 260 255 256 260 261 256 247 251 259 256 247 240 246 256 258 255 257 258 255 250 241 239 242 245 252 254 250 251 254 256 256 255 257 257 254 250 253 253 242 235 233 230 227 224 222 221 220 224 231 232 233 237 241 242 243 244 245 244 242 242 243 245 248 250 253 256 258
212 206 214 223 223 234 250 352 356 334 322 320 306 290 281 270 265 264 264 261 261 257 255 255 243 234 246 255 252 243 243 249 253 252 252 253 254 254 246 241 246 245 251 259 254 251 253 258 264 267 265 265 270 275 273 264 251 238 233 229 226 225 223 221 220 223 230 233 232 234 240 243 244 246 247 246 244 243 243 244 246 248 250 252 254
209 201 208 209 203 210 218 1 353 342 335 326 309 296 287 280 269 259 253 253 255 250 247 251 244 231 233 246 252 251 252 252 254 252 247 248 248 248 244 240 246 245 249 256 253 258 264 265 269 267 260 264 273 278 278 267 251 240 235 227 221 224 228 226 222 224 230 234 235 234 240 244 245 247 248 248 246 244 243 243 244 245 247 249 251
209 204 207 202 198 204 260 334 344 349 349 340 327 312 295 285 281 276 263 255 261 256 243 239 236 232 231 238 244 247 252 253 256 257 254 251 249 248 243 236 242 253 258 258 255 264 268 262 265 269 267 269 267 264 272 268 246 235 231 226 221 219 229 232 227 226 230 235 239 237 237 242 245 248 249 250 250 248 246 244 244 245 246 247 248
217 209 209 206 212 233 310 323 337 346 351 350 345 332 309 293 288 284 271 262 268 272 263 256 247 236 231 234 238 239 246 251 252 256 257 254 252 254 252 242 239 253 263 264 258 253 252 256 263 268 267 270 269 260 262 263 247 234 222 216 221 222 223 228 227 228 231 234 239 241 239 239 242 247 250 251 252 253 251 248 246 245 246 247 248
222 216 218 219 230 260 307 316 329 336 346 351 349 345 330 314 299 283 270 263 262 262 261 261 257 244 235 233 240 240 243 250 251 253 252 250 255 260 264 263 253 250 257 263 265 261 256 257 262 266 265 264 269 264 257 257 249 238 228 218 219 223 224 221 217 219 226 233 237 241 243 242 241 243 248 251 253 256 255 251 249 248 248 249 249
224 225 227 230 243 266 296 310 322 329 339 346 348 349 343 331 313 292 277 268 260 255 252 253 249 241 240 241 245 245 242 246 251 255 253 253 258 263 266 269 268 263 263 265 268 268 261 253 257 264 264 260 264 267 260 260 256 241 236 228 218 218 225 225 219 212 209 218 228 235 243 248 248 246 246 248 253 256 257 254 253 252 252 252 252
227 232 232 236 251 267 288 304 315 324 333 338 344 348 350 347 331 314 293 276 267 263 258 257 252 241 241 245 245 244 242 243 249 255 257 257 258 261 263 264 267 269 270 270 266 267 265 259 256 259 263 261 263 269 266 268 266 249 230 218 212 213 219 223 223 219 213 212 215 223 236 246 251 253 250 248 250 254 258 258 256 255 256 255 255
233 235 235 241 255 266 283 297 307 317 325 331 337 343 349 352 346 334 316 297 283 274 265 262 261 253 244 241 241 243 246 247 251 254 256 260 260 259 259 261 264 264 266 267 262 265 269 262 255 256 262 263 263 266 268 271 270 261 240 215 209 214 219 220 219 222 223 222 219 216 222 232 240 249 253 253 253 253 257 258 257 256 257 258 257
236 237 237 245 256 266 280 291 302 312 319 327 333 339 345 348 349 344 329 314 301 287 275 271 271 267 254 244 244 247 250 249 250 252 254 259 261 259 257 259 262 262 263 264 261 264 265 259 259 258 256 258 260 257 260 267 267 268 265 241 223 220 222 221 221 222 222 226 227 226 227 229 234 241 247 253 257 258 258 258 258 258 259 260 259
236 241 244 250 258 265 278 288 299 308 316 323 329 334 339 342 345 349 341 322 309 304 296 289 282 274 263 255 254 255 256 254 252 253 252 254 257 259 259 259 260 260 262 264 262 262 259 259 262 256 252 254 255 256 256 258 263 264 265 262 245 227 222 219 220 222 221 223 226 229 233 232 232 236 241 246 252 256 259 259 259 260 261 262 262
241 247 252 254 260 267 276 287 296 305 313 319 325 330 334 338 342 348 349 334 318 316 309 306 300 288 276 263 261 261 260 260 258 256 254 253 256 260 263 263 261 259 261 263 259 256 257 260 259 254 255 255 254 259 258 254 256 257 254 256 257 243 235 229 224 222 224 229 228 228 233 235 232 231 234 241 247 251 257 259 260 260 260 261 262
241 249 254 256 262 268 275 284 292 300 309 315 322 327 332 337 340 346 350 340 326 324 316 311 307 298 289 275 267 266 265 264 261 259 259 258 258 260 264 268 267 262 259 257 251 251 255 257 256 254 254 255 255 257 256 256 253 249 249 251 252 256 257 242 230 226 228 231 232 232 233 235 235 233 233 236 240 244 249 254 258 259 259 260 260
242 249 255 258 263 267 273 280 286 294 305 312 318 324 329 334 336 342 347 339 324 325 321 312 305 297 291 283 275 268 266 265 263 265 266 265 264 263 265 268 271 266 256 254 252 249 249 251 251 251 252 254 258 256 250 252 250 243 244 248 249 250 253 247 234 234 236 231 230 234 232 231 234 235 236 237 238 238 239 242 248 252 255 257 257
246 251 255 259 262 265 268 273 279 288 299 307 313 319 321 326 332 339 344 337 321 322 322 310 300 290 287 284 281 275 273 272 273 276 274 270 272 271 266 264 268 267 261 263 262 253 248 247 244 242 242 245 253 252 245 247 249 244 241 244 249 245 241 247 243 241 245 238 232 234 233 228 229 231 234 238 239 239 239 240 241 245 249 251 253
248 250 254 258 259 261 263 265 272 280 291 299 305 312 313 318 325 334 342 335 319 326 326 311 305 297 298 300 293 291 291 291 290 291 289 284 284 283 278 272 268 266 268 271 269 262 257 251 245 242 240 239 242 246 247 251 252 247 244 246 249 245 241 245 246 245 246 240 234 233 233 230 229 233 234 237 239 238 239 242 243 244 248 251 253
246 249 253 256 256 258 258 259 264 270 280 288 295 302 305 311 317 327 337 332 311 327 342 341 338 323 313 307 301 299 297 296 295 294 296 296 294 295 298 292 278 271 269 270 270 270 269 260 254 249 243 240 238 239 244 248 250 251 249 249 250 248 246 244 243 247 247 240 235 232 232 231 232 235 235 238 240 238 238 241 244 244 246 251 252
240 247 251 254 255 256 254 255 259 263 270 276 285 293 296 304 309 317 328 328 303 313 343 355 351 338 327 318 313 309 304 299 293 290 289 291 295 297 301 308 308 301 286 278 276 273 271 267 263 256 245 242 242 242 244 244 244 248 246 245 248 249 252 250 240 242 249 246 240 236 234 234 235 235 234 237 238 237 240 242 244 244 244 248 249
236 242 249 253 253 253 252 253 255 257 261 266 273 282 288 294 300 308 319 321 299 301 328 349 354 345 336 332 331 329 323 315 302 293 287 284 287 289 293 300 307 314 319 312 301 286 273 264 257 252 241 237 242 246 250 248 243 243 243 243 245 246 253 259 250 243 246 248 241 236 235 236 237 236 235 239 240 241 244 245 245 244 244 245 245
234 235 243 250 251 249 249 251 253 254 255 258 262 269 279 284 288 300 310 310 297 298 308 326 344 344 338 337 340 342 338 333 324 311 301 293 290 290 291 293 298 303 307 313 313 309 295 278 270 265 246 233 237 243 249 253 249 247 248 249 250 250 250 254 253 248 247 247 239 233 233 234 236 237 239 242 244 244 246 247 246 245 244 244 244
236 238 242 247 251 251 249 249 250 251 249 250 253 257 267 274 277 287 296 298 292 293 299 306 322 333 337 338 339 346 350 350 351 343 331 323 315 309 305 303 304 303 301 303 302 298 291 289 289 289 286 257 241 243 248 254 258 257 258 258 260 261 256 255 256 253 249 247 242 237 237 237 237 240 243 245 246 248 247 246 246 247 246 245 245
Height
3139 3139 3140 3141 3141 3142 3142 3142 3142 3143 3143 3144 3144 3144 3144 3145 3145 3145 3145 3145 3146 3146 3146 3146 3147 3147 3148 3148 3148 3148 3148 3149 3150 3150 3151 3151 3152 3152 3152 3153 3153 3154 3155 3156 3157 3159 3160 3160 3162 3163 3164 3165 3166 3167 3168 3169 3170 3171 3172 3173 3174 3175 3175 3176 3176 3176 3176 3177 3177 3178 3178 3178 3179 3178 3178 3178 3178 3178 3177 3176 3176 3175 3175 3174 3173
3138 3139 3139 3140 3141 3141 3141 3142 3142 3142 3143 3143 3144 3144 3144 3144 3145 3145 3145 3145 3145 3146 3146 3146 3147 3147 3148 3148 3148 3148 3149 3149 3149 3150 3151 3151 3152 3152 3153 3153 3153 3154 3155 3157 3158 3159 3160 3161 3162 3163 3164 3165 3167 3168 3169 3170 3171 3172 3173 3174 3175 3176 3176 3176 3176 3176 3177 3177 3178 3178 3179 3179 3179 3179 3179 3179 3179 3178 3178 3177 3177 3177 3176 3175 3174
3137 3138 3139 3140 3140 3141 3141 3141 3142 3142 3143 3143 3143 3144 3144 3144 3145 3145 3145 3145 3146 3146 3146 3147 3147 3148 3148 3148 3148 3148 3148 3149 3149 3150 3151 3151 3152 3153 3153 3153 3153 3154 3155 3157 3158 3159 3160 3161 3162 3163 3164 3165 3167 3168 3169 3170 3171 3172 3173 3174 3176 3176 3176 3176 3177 3177 3178 3178 3179 3179 3179 3179 3180 3180 3180 3180 3180 3179 3178 3178 3178 3178 3177 3176 3175
3136 3137 3138 3139 3140 3140 3141 3141 3141 3142 3142 3143 3143 3144 3144 3144 3145 3145 3145 3145 3146 3146 3146 3147 3147 3148 3148 3148 3148 3148 3148 3149 3149 3150 3151 3151 3152 3152 3153 3153 3154 3154 3155 3157 3158 3159 3160 3161 3162 3163 3165 3166 3167 3168 3169 3171 3172 3173 3174 3175 3176 3176 3177 3177 3177 3178 3178 3179 3179 3180 3180 3180 3180 3181 3181 3181 3181 3180 3179 3179 3179 3179 3178 3178 3177
3136 3137 3138 3138 3139 3140 3140 3141 3141 3142 3142 3142 3143 3144 3144 3144 3145 3145 3145 3145 3146 3146 3147 3147 3148 3148 3148 3148 3148 3148 3148 3149 3149 3150 3150 3151 3151 3152 3153 3153 3154 3155 3155 3157 3158 3159 3160 3161 3162 3163 3165 3166 3167 3168 3169 3171 3172 3173 3174 3176 3176 3176 3177 3178 3178 3179 3179 3179 3180 3181 3181 3181 3181 3182 3182 3182 3182 3181 3180 3180 3180 3180 3179 3179 3178
3136 3137 3137 3138 3139 3139 3140 3140 3141 3141 3142 3142 3143 3143 3144 3144 3144 3145 3145 3145 3146 3146 3147 3147 3147 3148 3148 3148 3148 3148 3148 3149 3149 3149 3150 3150 3151 3151 3153 3154 3154 3155 3156 3157 3158 3159 3160 3161 3162 3163 3164 3165 3167 3168 3169 3171 3172 3173 3175 3175 3176 3177 3178 3178 3179 3179 3179 3180 3180 3181 3182 3181 3182 3182 3183 3183 3182 3182 3181 3181 3181 3181 3180 3180 3179
3135 3136 3136 3137 3138 3139 3139 3140 3141 3141 3141 3142 3143 3143 3144 3144 3144 3144 3145 3145 3146 3146 3147 3147 3147 3147 3148 3148 3148 3148 3148 3148 3149 3149 3149 3150 3151 3151 3152 3153 3154 3155 3155 3156 3157 3158 3160 3161 3162 3163 3164 3165 3167 3168 3169 3171 3172 3173 3175 3175 3176 3177 3178 3178 3179 3179 3180 3180 3181 3181 3182 3182 3182 3183 3183 3183 3183 3183 3183 3182 3182 3182 3181 3181 3181
3134 3135 3136 3137 3137 3138 3139 3140 3140 3141 3141 3142 3142 3143 3143 3144 3144 3144 3145 3146 3146 3146 3146 3147 3147 3147 3147 3147 3147 3147 3148 3148 3149 3149 3149 3150 3150 3151 3152 3153 3154 3155 3155 3156 3157 3158 3159 3160 3161 3163 3164 3165 3166 3167 3169 3170 3172 3173 3175 3175 3176 3177 3178 3179 3179 3180 3180 3180 3181 3182 3182 3182 3183 3183 3184 3184 3184 3184 3183 3183 3183 3183 3183 3182 3182
3133 3135 3135 3136 3137 3138 3138 3139 3140 3141 3141 3141 3142 3142 3143 3143 3144 3144 3145 3146 3146 3146 3146 3146 3147 3147 3147 3147 3147 3147 3147 3148 3148 3149 3149 3150 3150 3150 3151 3153 3154 3154 3155 3156 3157 3158 3159 3160 3161 3163 3164 3165 3166 3167 3169 3170 3171 3173 3174 3175 3176 3177 3178 3179 3179 3180 3180 3180 3181 3182 3183 3183 3184 3184 3184 3184 3185 3185 3184 3184 3184 3184 3184 3183 3183
3133 3134 3135 3136 3136 3137 3138 3139 3140 3141 3141 3141 3142 3142 3143 3143 3144 3145 3145 3146 3146 3146 3146 3146 3146 3146 3147 3147 3147 3147 3147 3148 3148 3149 3149 3149 3150 3150 3151 3153 3154 3154 3155 3156 3157 3157 3158 3159 3161 3162 3163 3164 3165 3167 3168 3170 3171 3172 3173 3175 3176 3177 3178 3179 3179 3180 3179 3180 3182 3182 3183 3184 3184 3184 3185 3185 3185 3185 3185 3185 3184 3184 3184 3184 3184
3133 3134 3134 3135 3136 3137 3138 3139 3140 3141 3141 3141 3142 3142 3143 3143 3144 3145 3145 3145 3145 3145 3146 3146 3146 3146 3146 3147 3147 3147 3147 3148 3148 3149 3149 3149 3150 3151 3151 3152 3153 3154 3155 3155 3156 3156 3158 3159 3160 3161 3163 3164 3164 3166 3168 3169 3170 3172 3173 3174 3175 3177 3178 3179 3180 3180 3180 3181 3182 3182 3183 3184 3184 3185 3185 3185 3185 3185 3185 3185 3185 3185 3185 3185 3185
3132 3133 3134 3135 3136 3137 3138 3139 3140 3140 3141 3141 3142 3142 3143 3143 3144 3144 3145 3145 3145 3145 3145 3146 3146 3146 3146 3146 3147 3147 3147 3148 3148 3149 3149 3150 3150 3151 3151 3152 3153 3154 3154 3155 3155 3156 3157 3158 3159 3160 3162 3163 3164 3165 3167 3168 3170 3171 3172 3173 3175 3176 3178 3179 3179 3179 3180 3180 3181 3182 3183 3184 3184 3185 3185 3185 3185 3185 3186 3186 3186 3186 3186 3186 3186
3132 3134 3134 3135 3136 3137 3138 3139 3139 3140 3141 3141 3141 3142 3142 3143 3143 3144 3144 3145 3145 3145 3145 3145 3145 3146 3146 3146 3147 3147 3147 3148 3148 3149 3149 3150 3151 3151 3151 3152 3153 3153 3154 3154 3155 3155 3156 3157 3158 3159 3161 3162 3163 3165 3166 3168 3169 3170 3171 3173 3174 3176 3177 3178 3178 3178 3179 3180 3180 3182 3184 3184 3184 3185 3185 3185 3185 3186 3186 3186 3186 3186 3186 3187 3186
3132 3133 3134 3135 3136 3137 3138 3139 3139 3140 3140 3141 3141 3141 3142 3142 3143 3143 3144 3144 3144 3145 3145 3145 3145 3145 3146 3147 3147 3147 3148 3148 3148 3149 3149 3150 3150 3151 3152 3152 3152 3153 3153 3154 3154 3155 3155 3156 3157 3158 3159 3161 3162 3164 3165 3167 3168 3170 3171 3172 3173 3175 3176 3177 3178 3178 3179 3180 3179 3182 3184 3184 3184 3185 3185 3185 3186 3186 3186 3187 3187 3187 3187 3187 3187
3131 3133 3134 3134 3135 3136 3138 3139 3139 3139 3140 3140 3141 3141 3142 3142 3142 3143 3143 3143 3144 3144 3144 3145 3145 3146 3146 3147 3147 3147 3148 3148 3149 3149 3149 3150 3150 3151 3151 3152 3152 3152 3153 3153 3154 3154 3155 3155 3156 3157 3158 3159 3161 3163 3164 3166 3167 3169 3170 3171 3172 3174 3175 3176 3177 3178 3179 3179 3179 3182 3184 3184 3184 3184 3185 3185 3186 3186 3187 3187 3187 3187 3187 3188 3188
3131 3133 3134 3135 3135 3137 3137 3138 3139 3139 3139 3139 3140 3141 3141 3142 3142 3142 3142 3143 3143 3144 3144 3144 3145 3146 3146 3146 3147 3147 3148 3148 3149 3149 3149 3150 3150 3151 3151 3151 3152 3152 3152 3153 3153 3154 3154 3154 3155 3156 3157 3158 3160 3161 3163 3165 3167 3168 3169 3170 3172 3173 3174 3175 3177 3177 3179 3179 3179 3181 3183 3184 3184 3184 3185 3185 3186 3187 3187 3187 3187 3187 3188 3188 3188
3131 3133 3134 3135 3135 3136 3137 3138 3138 3139 3139 3139 3139 3140 3141 3141 3142 3142 3142 3142 3143 3143 3143 3144 3145 3145 3145 3145 3146 3147 3148 3149 3149 3149 3149 3150 3150 3150 3151 3151 3151 3152 3152 3152 3153 3153 3153 3154 3154 3155 3156 3157 3158 3160 3162 3164 3166 3167 3169 3170 3171 3172 3173 3175 3175 3176 3178 3177 3178 3181 3182 3183 3184 3184 3185 3185 3186 3187 3187 3188 3188 3188 3188 3188 3188
3131 3132 3133 3134 3135 3136 3137 3137 3138 3138 3138 3138 3139 3140 3140 3141 3141 3141 3142 3142 3142 3142 3143 3144 3144 3144 3144 3144 3146 3147 3148 3148 3149 3149 3149 3149 3150 3150 3150 3151 3151 3151 3152 3152 3152 3153 3153 3153 3153 3154 3154 3156 3157 3159 3161 3163 3165 3166 3168 3169 3170 3171 3172 3173 3173 3175 3176 3175 3178 3180 3181 3183 3183 3184 3184 3185 3186 3187 3187 3188 3188 3188 3188 3188 3189
3130 3132 3133 3134 3135 3135 3136 3136 3137 3137 3137 3138 3138 3139 3140 3140 3141 3141 3141 3141 3142 3142 3143 3144 3144 3142 3142 3144 3146 3147 3148 3148 3148 3148 3148 3149 3149 3149 3150 3150 3150 3151 3151 3151 3151 3152 3152 3152 3153 3153 3153 3154 3156 3157 3159 3161 3163 3165 3167 3168 3169 3170 3171 3171 3172 3174 3173 3175 3178 3179 3181 3182 3183 3183 3184 3185 3185 3186 3187 3187 3188 3188 3188 3188 3189
3130 3131 3132 3133 3134 3135 3135 3136 3136 3136 3137 3138 3138 3139 3140 3140 3140 3141 3141 3141 3141 3141 3142 3142 3142 3140 3140 3144 3147 3147 3147 3148 3148 3148 3148 3148 3148 3149 3149 3150 3150 3150 3150 3150 3150 3150 3151 3151 3151 3152 3152 3153 3155 3156 3158 3160 3162 3164 3166 3167 3168 3169 3170 3170 3171 3171 3172 3175 3177 3178 3180 3181 3182 3183 3183 3184 3185 3186 3187 3187 3188 3188 3188 3188 3189
3130 3131 3132 3132 3133 3134 3135 3135 3136 3136 3136 3138 3139 3139 3139 3139 3140 3141 3140 3141 3141 3141 3141 3141 3141 3140 3141 3145 3148 3147 3147 3147 3148 3148 3147 3147 3148 3148 3148 3149 3149 3149 3149 3149 3149 3149 3150 3150 3150 3151 3151 3152 3154 3155 3157 3159 3160 3162 3164 3166 3167 3169 3169 3169 3170 3170 3171 3175 3176 3177 3179 3180 3181 3182 3183 3184 3184 3185 3186 3187 3187 3188 3188 3188 3189
3129 3130 3131 3132 3133 3134 3134 3135 3135 3135 3137 3138 3139 3139 3138 3139 3140 3140 3140 3140 3141 3140 3140 3139 3139 3139 3141 3146 3148 3147 3147 3147 3147 3147 3146 3147 3147 3147 3147 3148 3148 3148 3148 3148 3148 3148 3149 3149 3149 3150 3150 3152 3153 3154 3156 3158 3159 3161 3163 3165 3166 3168 3168 3169 3170 3169 3169 3173 3175 3176 3178 3179 3180 3181 3182 3183 3183 3185 3185 3186 3187 3187 3187 3188 3188
3128 3129 3130 3131 3132 3133 3133 3133 3134 3135 3137 3138 3139 3138 3138 3139 3139 3139 3139 3140 3140 3139 3137 3138 3139 3139 3142 3146 3147 3146 3146 3147 3147 3146 3146 3146 3146 3146 3147 3147 3148 3148 3148 3148 3148 3148 3148 3148 3148 3149 3149 3150 3151 3153 3154 3156 3158 3160 3162 3163 3164 3166 3168 3168 3169 3167 3168 3172 3174 3175 3176 3177 3179 3180 3181 3182 3183 3184 3184 3185 3186 3187 3187 3187 3188
3126 3127 3129 3130 3131 3133 3133 3132 3133 3135 3136 3137 3137 3137 3138 3139 3139 3139 3139 3139 3139 3136 3136 3138 3140 3141 3143 3144 3145 3146 3146 3146 3146 3146 3145 3145 3146 3146 3147 3148 3148 3148 3147 3147 3147 3147 3147 3147 3147 3147 3148 3149 3150 3151 3152 3154 3156 3159 3160 3161 3163 3164 3166 3167 3167 3166 3167 3170 3172 3174 3175 3176 3178 3179 3180 3181 3182 3183 3184 3185 3185 3186 3186 3187 3188
3126 3127 3128 3129 3130 3131 3131 3132 3133 3135 3135 3136 3136 3136 3137 3137 3138 3138 3138 3138 3137 3135 3137 3138 3140 3141 3142 3143 3144 3145 3145 3145 3145 3144 3144 3144 3145 3146 3147 3148 3147 3147 3146 3146 3146 3146 3146 3146 3146 3146 3147 3148 3149 3150 3151 3152 3154 3157 3158 3160 3161 3162 3164 3165 3166 3165 3166 3169 3171 3173 3174 3175 3176 3177 3179 3180 3180 3181 3183 3184 3184 3185 3186 3186 3187
3126 3127 3127 3128 3129 3130 3131 3132 3133 3134 3135 3136 3137 3136 3137 3137 3137 3138 3138 3138 3136 3136 3138 3140 3139 3140 3141 3141 3142 3143 3143 3144 3144 3143 3143 3143 3144 3145 3146 3147 3146 3145 3145 3146 3146 3146 3146 3146 3146 3146 3146 3147 3148 3149 3149 3151 3152 3155 3157 3158 3159 3161 3162 3164 3164 3163 3165 3167 3169 3171 3172 3173 3175 3176 3177 3179 3179 3180 3181 3182 3183 3184 3185 3186 3186
3126 3127 3128 3128 3128 3130 3131 3131 3132 3133 3134 3135 3136 3136 3136 3136 3136 3137 3137 3137 3136 3135 3137 3138 3139 3140 3140 3140 3140 3140 3141 3142 3142 3142 3142 3143 3144 3145 3146 3145 3145 3144 3144 3145 3145 3145 3145 3145 3145 3146 3146 3147 3147 3148 3149 3150 3151 3153 3155 3156 3158 3159 3161 3162 3163 3162 3163 3166 3168 3169 3170 3172 3173 3174 3176 3177 3178 3179 3180 3181 3182 3183 3184 3185 3185
3125 3126 3128 3128 3127 3128 3130 3131 3132 3132 3133 3133 3134 3135 3135 3135 3135 3135 3135 3136 3135 3135 3135 3136 3138 3139 3140 3140 3139 3140 3140 3141 3141 3141 3141 3142 3144 3145 3145 3144 3143 3143 3144 3144 3144 3144 3144 3145 3145 3145 3146 3147 3147 3147 3148 3149 3150 3152 3154 3155 3156 3158 3159 3160 3162 3161 3162 3165 3166 3168 3169 3170 3172 3173 3174 3175 3177 3178 3179 3180 3181 3182 3183 3184 3185
3125 3125 3127 3127 3126 3127 3127 3130 3132 3132 3133 3133 3133 3133 3134 3134 3133 3133 3133 3134 3134 3134 3135 3135 3136 3137 3138 3138 3139 3139 3140 3140 3141 3141 3140 3141 3143 3144 3144 3143 3143 3143 3143 3143 3143 3144 3144 3144 3145 3146 3146 3146 3147 3147 3148 3148 3149 3151 3152 3153 3155 3156 3157 3159 3160 3160 3161 3163 3164 3166 3167 3169 3170 3171 3173 3174 3175 3176 3177 3178 3180 3181 3182 3183 3184
3124 3125 3126 3126 3126 3127 3126 3127 3128 3130 3131 3131 3131 3132 3132 3132 3132 3133 3133 3133 3132 3133 3134 3135 3136 3136 3136 3137 3138 3138 3138 3139 3139 3140 3140 3141 3143 3144 3143 3142 3142 3143 3142 3143 3143 3143 3144 3144 3145 3145 3145 3146 3146 3146 3147 3147 3148 3149 3150 3152 3153 3155 3157 3158 3159 3159 3159 3161 3163 3164 3166 3167 3168 3170 3171 3172 3174 3175 3176 3177 3178 3180 3181 3182 3182
3124 3124 3125 3126 3127 3127 3127 3127 3127 3127 3128 3128 3129 3129 3130 3130 3130 3131 3131 3132 3132 3133 3133 3134 3135 3135 3135 3135 3136 3138 3138 3138 3138 3139 3139 3139 3141 3142 3143 3142 3142 3143 3142 3141 3142 3143 3143 3144 3144 3145 3145 3146 3146 3146 3146 3146 3147 3147 3149 3151 3152 3154 3155 3156 3158 3158 3158 3160 3162 3163 3164 3166 3167 3168 3169 3171 3172 3173 3174 3176 3177 3178 3179 3180 3181
3123 3124 3125 3126 3126 3127 3127 3128 3128 3127 3127 3127 3127 3127 3128 3128 3128 3128 3128 3129 3130 3131 3132 3132 3134 3134 3134 3133 3134 3136 3137 3137 3137 3138 3138 3138 3139 3140 3141 3141 3142 3142 3141 3141 3142 3143 3144 3145 3145 3145 3145 3146 3146 3146 3146 3146 3145 3146 3147 3149 3151 3152 3153 3154 3156 3157 3158 3159 3161 3161 3162 3164 3166 3167 3168 3169 3170 3171 3173 3174 3175 3177 3178 3179 3180
3122 3123 3124 3125 3125 3126 3127 3128 3128 3128 3128 3127 3126 3126 3126 3126 3127 3127 3128 3128 3128 3130 3131 3131 3132 3133 3133 3133 3133 3134 3135 3135 3136 3137 3138 3138 3138 3139 3140 3140 3141 3141 3142 3143 3144 3145 3147 3147 3145 3144 3144 3145 3146 3146 3146 3145 3145 3145 3146 3147 3149 3151 3152 3153 3155 3157 3157 3158 3159 3161 3161 3162 3164 3165 3166 3167 3169 3170 3171 3172 3174 3175 3176 3177 3178
3121 3122 3123 3124 3125 3126 3127 3128 3128 3128 3128 3127 3127 3126 3126 3125 3125 3126 3126 3126 3127 3128 3130 3130 3131 3132 3132 3132 3133 3133 3133 3133 3133 3134 3136 3137 3136 3136 3138 3139 3140 3140 3141 3144 3145 3146 3147 3147 3144 3144 3144 3145 3145 3145 3144 3144 3144 3144 3145 3146 3147 3149 3151 3152 3154 3156 3156 3157 3157 3159 3160 3161 3162 3163 3164 3166 3167 3168 3169 3171 3172 3173 3174 3175 3176
3120 3121 3122 3123 3124 3125 3126 3127 3128 3128 3128 3127 3127 3126 3126 3125 3125 3125 3125 3125 3125 3126 3127 3127 3128 3130 3130 3131 3131 3132 3132 3132 3132 3132 3134 3134 3133 3133 3134 3137 3139 3139 3140 3141 3143 3143 3144 3143 3143 3143 3143 3144 3144 3144 3143 3143 3142 3143 3144 3144 3146 3147 3149 3150 3152 3154 3155 3156 3156 3157 3158 3160 3161 3162 3163 3164 3165 3166 3167 3169 3170 3171 3172 3174 3175
3119 3120 3121 3122 3123 3124 3125 3126 3127 3127 3127 3127 3127 3126 3126 3125 3125 3124 3124 3124 3124 3125 3125 3125 3126 3127 3128 3129 3130 3130 3130 3130 3130 3130 3131 3131 3131 3131 3132 3134 3136 3137 3138 3139 3139 3140 3141 3142 3142 3142 3142 3142 3142 3142 3142 3141 3141 3142 3142 3142 3144 3146 3147 3148 3150 3151 3153 3154 3155 3155 3155 3157 3159 3160 3161 3162 3164 3165 3166 3167 3168 3169 3170 3172 3173
3119 3119 3120 3121 3122 3124 3124 3125 3126 3126 3126 3126 3126 3125 3125 3125 3124 3124 3123 3123 3123 3123 3123 3123 3125 3126 3127 3128 3128 3128 3128 3128 3127 3127 3128 3128 3129 3129 3130 3131 3132 3134 3136 3136 3137 3137 3138 3139 3139 3140 3140 3140 3139 3139 3139 3139 3140 3140 3141 3141 3142 3144 3146 3147 3147 3149 3150 3151 3153 3154 3154 3155 3156 3158 3159 3161 3162 3163 3163 3165 3166 3167 3168 3170 3171
3118 3119 3120 3121 3122 3123 3124 3124 3124 3124 3124 3125 3125 3124 3124 3124 3124 3123 3122 3122 3122 3122 3122 3121 3122 3124 3126 3126 3126 3126 3126 3126 3126 3126 3126 3126 3127 3127 3128 3129 3129 3130 3133 3134 3134 3135 3134 3135 3137 3138 3138 3138 3137 3137 3137 3138 3139 3139 3139 3140 3141 3142 3143 3144 3145 3147 3148 3148 3150 3152 3153 3154 3154 3155 3156 3158 3160 3161 3161 3162 3164 3165 3166 3167 3168
3118 3118 3119 3120 3121 3122 3123 3123 3123 3123 3123 3123 3123 3123 3123 3123 3123 3122 3121 3121 3121 3121 3120 3120 3120 3122 3124 3124 3124 3124 3124 3124 3124 3124 3124 3124 3125 3125 3126 3127 3127 3128 3130 3131 3132 3132 3133 3133 3135 3136 3136 3136 3136 3136 3136 3137 3138 3138 3138 3139 3140 3140 3141 3142 3144 3145 3147 3148 3148 3149 3151 3152 3153 3154 3154 3156 3157 3158 3159 3160 3161 3163 3164 3165 3166
3118 3118 3119 3120 3121 3121 3122 3122 3122 3122 3122 3122 3122 3122 3122 3121 3121 3121 3120 3120 3119 3119 3119 3119 3119 3120 3121 3122 3122 3122 3122 3123 3123 3123 3123 3123 3123 3123 3124 3125 3126 3127 3127 3128 3129 3130 3131 3132 3133 3133 3134 3135 3135 3135 3134 3135 3137 3137 3137 3139 3139 3140 3140 3141 3142 3143 3145 3146 3147 3148 3149 3151 3152 3153 3153 3154 3155 3156 3157 3158 3159 3160 3162 3163 3164
3117 3118 3118 3119 3120 3121 3121 3121 3121 3122 3121 3121 3121 3121 3121 3121 3120 3120 3119 3119 3118 3118 3118 3118 3118 3119 3119 3119 3120 3120 3120 3120 3121 3121 3122 3122 3121 3121 3122 3124 3125 3125 3125 3126 3128 3128 3129 3129 3130 3131 3131 3132 3133 3133 3133 3134 3136 3136 3136 3137 3138 3139 3140 3141 3141 3142 3144 3144 3145 3147 3148 3149 3150 3151 3152 3153 3154 3154 3155 3156 3157 3158 3160 3160 3161
3116 3117 3118 3118 3119 3120 3120 3120 3120 3121 3121 3120 3120 3120 3120 3119 3119 3119 3118 3118 3118 3118 3118 3117 3118 3118 3118 3118 3118 3118 3118 3118 3119 3119 3119 3120 3120 3120 3121 3121 3123 3124 3124 3124 3125 3126 3126 3127 3128 3129 3129 3130 3131 3131 3132 3133 3134 3134 3135 3135 3136 3137 3138 3140 3140 3141 3143 3143 3144 3145 3146 3147 3148 3149 3150 3151 3152 3153 3153 3154 3155 3156 3157 3158 3159
3115 3116 3117 3118 3118 3119 3119 3120 3120 3120 3120 3120 3119 3119 3119 3118 3118 3118 3118 3117 3117 3117 3117 3117 3117 3117 3117 3118 3118 3117 3117 3117 3117 3117 3117 3118 3118 3119 3119 3119 3121 3122 3122 3122 3123 3123 3124 3125 3126 3127 3127 3128 3129 3130 3130 3131 3132 3133 3133 3134 3135 3136 3137 3138 3139 3140 3141 3143 3144 3144 3144 3145 3146 3146 3147 3148 3150 3151 3152 3153 3153 3154 3155 3156 3157
3115 3116 3116 3117 3117 3118 3119 3119 3119 3119 3119 3119 3119 3119 3118 3118 3118 3118 3118 3117 3117 3117 3117 3117 3117 3117 3117 3117 3117 3117 3117 3117 3117 3116 3117 3117 3117 3117 3118 3118 3119 3120 3120 3120 3121 3122 3123 3123 3124 3124 3125 3126 3127 3128 3129 3129 3130 3131 3132 3133 3134 3135 3136 3136 3137 3138 3139 3140 3142 3142 3143 3144 3145 3145 3146 3146 3147 3148 3150 3151 3152 3152 3153 3154 3155
3114 3115 3116 3116 3117 3117 3118 3118 3119 3119 3119 3119 3119 3118 3118 3118 3118 3118 3118 3118 3117 3117 3117 3117 3117 3117 3117 3117 3117 3117 3117 3117 3117 3116 3116 3116 3116 3116 3117 3117 3118 3118 3118 3119 3120 3121 3122 3122 3122 3123 3124 3124 3125 3126 3127 3128 3128 3129 3131 3132 3132 3133 3134 3134 3135 3136 3136 3137 3139 3140 3141 3142 3142 3143 3144 3145 3146 3147 3148 3149 3150 3150 3151 3152 3153
3114 3115 3115 3115 3115 3116 3117 3117 3118 3118 3118 3118 3118 3118 3118 3117 3117 3117 3118 3118 3117 3117 3117 3117 3117 3117 3117 3117 3117 3117 3117 3117 3116 3116 3116 3116 3116 3115 3116 3116 3117 3117 3118 3118 3119 3120 3121 3121 3121 3122 3123 3123 3123 3124 3125 3126 3127 3128 3129 3130 3131 3132 3133 3133 3134 3135 3135 3135 3136 3137 3138 3139 3140 3141 3142 3143 3145 3146 3146 3147 3148 3149 3149 3150 3151
3113 3114 3114 3114 3114 3115 3115 3116 3117 3118 3118 3118 3118 3118 3118 3117 3117 3117 3117 3117 3117 3117 3117 3117 3117 3117 3117 3117 3117 3117 3117 3117 3116 3116 3116 3115 3115 3115 3115 3116 3116 3117 3117 3118 3118 3119 3119 3120 3120 3121 3122 3122 3122 3123 3124 3124 3125 3127 3128 3129 3129 3130 3131 3132 3133 3133 3133 3134 3135 3135 3136 3138 3139 3140 3140 3142 3143 3144 3144 3145 3145 3147 3147 3148 3150
3111 3113 3113 3113 3113 3114 3114 3115 3116 3117 3117 3117 3117 3118 3118 3117 3117 3117 3117 3117 3117 3117 3117 3117 3117 3117 3117 3116 3116 3116 3116 3116 3116 3116 3115 3115 3115 3115 3115 3116 3116 3117 3117 3117 3118 3118 3118 3119 3119 3120 3120 3121 3121 3122 3122 3123 3124 3125 3126 3127 3128 3129 3130 3130 3131 3132 3132 3133 3134 3134 3135 3136 3137 3138 3139 3140 3141 3141 3142 3143 3144 3144 3145 3146 3147
3109 3110 3112 3112 3111 3112 3113 3113 3114 3116 3116 3116 3117 3117 3117 3117 3116 3116 3116 3117 3117 3117 3117 3117 3117 3117 3116 3116 3116 3116 3116 3116 3115 3115 3115 3115 3115 3115 3115 3115 3116 3116 3117 3117 3117 3117 3118 3118 3118 3119 3119 3120 3120 3121 3121 3122 3123 3124 3125 3125 3126 3127 3128 3128 3129 3131 3131 3132 3133 3133 3134 3134 3135 3136 3137 3138 3139 3139 3140 3141 3141 3142 3143 3143 3144
3107 3108 3110 3110 3110 3111 3111 3112 3113 3115 3115 3115 3116 3116 3117 3117 3116 3116 3116 3116 3117 3117 3117 3117 3117 3117 3116 3116 3116 3116 3116 3115 3115 3115 3115 3115 3115 3115 3115 3115 3115 3116 3116 3117 3117 3117 3117 3117 3118 3118 3119 3119 3120 3120 3121 3121 3122 3123 3123 3124 3125 3126 3126 3127 3128 3129 3130 3131 3132 3132 3132 3133 3133 3134 3134 3135 3136 3137 3138 3139 3139 3140 3141 3141 3142
3105 3106 3107 3108 3108 3108 3110 3111 3112 3114 3114 3114 3115 3115 3116 3116 3116 3116 3115 3116 3117 3117 3117 3117 3117 3117 3117 3116 3116 3116 3116 3116 3115 3115 3115 3115 3115 3115 3115 3115 3115 3115 3116 3116 3116 3117 3117 3117 3118 3118 3118 3119 3120 3120 3121 3121 3122 3122 3122 3123 3123 3124 3125 3126 3126 3127 3128 3129 3129 3130 3130 3131 3131 3131 3132 3133 3134 3135 3136 3136 3137 3138 3139 3139 3140